Time,TemperatureF,DewpointF,PressureIn,WindDirection,WindDirectionDegrees,WindSpeedMPH,WindSpeedGustMPH,Humidity,HourlyPrecipIn,Conditions,Clouds,dailyrainin,SoftwareType,DateUTC
2013-02-15 00:00:00,10.4,2.3,30.28,NW,325,5.0,8.0,69,0.00,,---,0.00,VWS V14.01,2013-02-15 06:00:00,
2013-02-15 00:05:00,10.3,2.5,30.28,NW,325,2.0,6.0,70,0.00,,---,0.00,VWS V14.01,2013-02-15 06:05:00,
2013-02-15 00:10:00,10.0,2.2,30.28,NW,325,2.0,6.0,70,0.00,,---,0.00,VWS V14.01,2013-02-15 06:10:00,
2013-02-15 00:15:00,9.9,2.1,30.28,NNW,331,1.0,6.0,70,0.00,,---,0.00,VWS V14.01,2013-02-15 06:15:00,
2013-02-15 00:20:00,9.7,2.2,30.28,NW,323,2.0,6.0,71,0.00,,---,0.00,VWS V14.01,2013-02-15 06:20:00,
2013-02-15 00:25:00,9.4,1.9,30.28,NW,323,1.0,6.0,71,0.00,,---,0.00,VWS V14.01,2013-02-15 06:25:00,
2013-02-15 00:30:00,9.2,1.7,30.29,NW,324,1.0,6.0,71,0.00,,---,0.00,VWS V14.01,2013-02-15 06:30:00,
2013-02-15 00:35:00,9.1,1.9,30.29,NW,323,1.0,2.0,72,0.00,,---,0.00,VWS V14.01,2013-02-15 06:35:00,
2013-02-15 00:40:00,9.0,1.8,30.29,NW,325,1.0,6.0,72,0.00,,---,0.00,VWS V14.01,2013-02-15 06:40:00,
2013-02-15 00:45:00,9.0,1.8,30.29,NW,325,1.0,6.0,72,0.00,,---,0.00,VWS V14.01,2013-02-15 06:45:00,
2013-02-15 00:50:00,8.9,1.7,30.29,NW,326,0.0,6.0,72,0.00,,---,0.00,VWS V14.01,2013-02-15 06:50:00,
2013-02-15 00:55:00,8.8,1.9,30.29,NNW,329,1.0,6.0,73,0.00,,---,0.00,VWS V14.01,2013-02-15 06:55:00,
2013-02-15 01:00:00,8.7,1.8,30.29,NNW,329,1.0,6.0,73,0.00,,---,0.00,VWS V14.01,2013-02-15 07:00:00,
2013-02-15 01:05:00,8.6,1.7,30.29,NNW,329,1.0,2.0,73,0.00,,---,0.00,VWS V14.01,2013-02-15 07:05:00,
2013-02-15 01:10:00,8.4,1.5,30.29,NNW,329,0.0,4.0,73,0.00,,---,0.00,VWS V14.01,2013-02-15 07:10:00,
2013-02-15 01:15:00,8.2,1.4,30.29,NNW,329,1.0,4.0,73,0.00,,---,0.00,VWS V14.01,2013-02-15 07:15:00,
2013-02-15 01:20:00,8.0,1.5,30.29,NNW,329,0.0,4.0,74,0.00,,---,0.00,VWS V14.01,2013-02-15 07:20:00,
2013-02-15 01:25:00,7.8,1.2,30.29,NNW,329,1.0,4.0,74,0.00,,---,0.00,VWS V14.01,2013-02-15 07:25:00,
2013-02-15 01:30:00,7.6,1.1,30.29,NNW,329,1.0,4.0,74,0.00,,---,0.00,VWS V14.01,2013-02-15 07:30:00,
2013-02-15 01:35:00,7.5,1.0,30.29,NNW,329,1.0,2.0,74,0.00,,---,0.00,VWS V14.01,2013-02-15 07:35:00,
2013-02-15 01:40:00,7.3,1.0,30.30,NNW,329,1.0,3.0,75,0.00,,---,0.00,VWS V14.01,2013-02-15 07:40:00,
2013-02-15 01:45:00,7.2,1.0,30.30,NNW,329,1.0,3.0,75,0.00,,---,0.00,VWS V14.01,2013-02-15 07:45:00,
2013-02-15 01:50:00,7.1,0.9,30.30,NNW,329,0.0,3.0,75,0.00,,---,0.00,VWS V14.01,2013-02-15 07:50:00,
2013-02-15 01:55:00,7.0,1.0,30.30,NNW,329,1.0,3.0,76,0.00,,---,0.00,VWS V14.01,2013-02-15 07:55:00,
2013-02-15 02:00:00,7.0,1.0,30.30,NNW,329,1.0,4.0,76,0.00,,---,0.00,VWS V14.01,2013-02-15 08:00:00,
2013-02-15 02:05:00,6.9,0.9,30.30,NNW,329,1.0,1.0,76,0.00,,---,0.00,VWS V14.01,2013-02-15 08:05:00,
2013-02-15 02:10:00,6.7,0.8,30.30,NNW,329,0.0,2.0,76,0.00,,---,0.00,VWS V14.01,2013-02-15 08:10:00,
2013-02-15 02:15:00,6.4,0.5,30.30,NNW,329,0.0,2.0,76,0.00,,---,0.00,VWS V14.01,2013-02-15 08:15:00,
2013-02-15 02:20:00,6.3,0.6,30.31,NNW,327,0.0,3.0,77,0.00,,---,0.00,VWS V14.01,2013-02-15 08:20:00,
2013-02-15 02:25:00,6.2,0.6,30.31,NNW,327,1.0,3.0,77,0.00,,---,0.00,VWS V14.01,2013-02-15 08:25:00,
2013-02-15 02:30:00,6.1,0.7,30.31,NNW,328,0.0,3.0,78,0.00,,---,0.00,VWS V14.01,2013-02-15 08:30:00,
2013-02-15 02:35:00,6.0,0.6,30.31,NNW,328,1.0,2.0,78,0.00,,---,0.00,VWS V14.01,2013-02-15 08:35:00,
2013-02-15 02:40:00,6.0,0.6,30.31,NNW,327,0.0,2.0,78,0.00,,---,0.00,VWS V14.01,2013-02-15 08:40:00,
2013-02-15 02:45:00,5.8,0.4,30.31,NNW,328,1.0,2.0,78,0.00,,---,0.00,VWS V14.01,2013-02-15 08:45:00,
2013-02-15 02:50:00,5.8,0.7,30.31,NNW,327,1.0,2.0,79,0.00,,---,0.00,VWS V14.01,2013-02-15 08:50:00,
2013-02-15 02:55:00,5.6,0.5,30.31,NNW,328,0.0,2.0,79,0.00,,---,0.00,VWS V14.01,2013-02-15 08:55:00,
2013-02-15 03:00:00,5.6,0.5,30.31,NNW,328,0.0,2.0,79,0.00,,---,0.00,VWS V14.01,2013-02-15 09:00:00,
2013-02-15 03:05:00,5.5,0.7,30.31,NNW,327,0.0,1.0,80,0.00,,---,0.00,VWS V14.01,2013-02-15 09:05:00,
2013-02-15 03:10:00,5.5,0.7,30.31,NNW,328,0.0,2.0,80,0.00,,---,0.00,VWS V14.01,2013-02-15 09:10:00,
2013-02-15 03:15:00,5.5,0.7,30.31,NNW,328,0.0,2.0,80,0.00,,---,0.00,VWS V14.01,2013-02-15 09:15:00,
2013-02-15 03:20:00,5.3,0.5,30.31,NNW,328,1.0,2.0,80,0.00,,---,0.00,VWS V14.01,2013-02-15 09:20:00,
2013-02-15 03:25:00,5.1,0.3,30.31,NNW,328,0.0,2.0,80,0.00,,---,0.00,VWS V14.01,2013-02-15 09:25:00,
2013-02-15 03:30:00,5.0,0.2,30.31,NNW,327,1.0,2.0,80,0.00,,---,0.00,VWS V14.01,2013-02-15 09:30:00,
2013-02-15 03:35:00,5.0,0.5,30.31,NNW,328,0.0,3.0,81,0.00,,---,0.00,VWS V14.01,2013-02-15 09:35:00,
2013-02-15 03:40:00,4.9,0.4,30.31,NNW,328,0.0,3.0,81,0.00,,---,0.00,VWS V14.01,2013-02-15 09:40:00,
2013-02-15 03:45:00,4.8,0.3,30.31,NNW,333,1.0,5.0,81,0.00,,---,0.00,VWS V14.01,2013-02-15 09:45:00,
2013-02-15 03:50:00,4.8,0.3,30.32,NNW,333,0.0,5.0,81,0.00,,---,0.00,VWS V14.01,2013-02-15 09:50:00,
2013-02-15 03:55:00,4.6,0.1,30.32,NNW,333,0.0,5.0,81,0.00,,---,0.00,VWS V14.01,2013-02-15 09:55:00,
2013-02-15 04:00:00,4.5,0.0,30.32,NNW,333,0.0,5.0,81,0.00,,---,0.00,VWS V14.01,2013-02-15 10:00:00,
2013-02-15 04:05:00,4.5,0.2,30.32,NNW,333,0.0,1.0,82,0.00,,---,0.00,VWS V14.01,2013-02-15 10:05:00,
2013-02-15 04:10:00,4.4,0.1,30.32,NNW,333,0.0,1.0,82,0.00,,---,0.00,VWS V14.01,2013-02-15 10:10:00,
2013-02-15 04:15:00,4.3,0.0,30.32,NNW,333,2.0,2.0,82,0.00,,---,0.00,VWS V14.01,2013-02-15 10:15:00,
2013-02-15 04:20:00,4.2,-0.1,30.32,NNW,333,0.0,2.0,82,0.00,,---,0.00,VWS V14.01,2013-02-15 10:20:00,
2013-02-15 04:25:00,4.1,-0.2,30.32,NNW,333,0.0,2.0,82,0.00,,---,0.00,VWS V14.01,2013-02-15 10:25:00,
2013-02-15 04:30:00,4.0,-0.3,30.32,NNW,333,0.0,2.0,82,0.00,,---,0.00,VWS V14.01,2013-02-15 10:30:00,
2013-02-15 04:35:00,3.9,-0.4,30.33,NNW,333,0.0,1.0,82,0.00,,---,0.00,VWS V14.01,2013-02-15 10:35:00,
2013-02-15 04:40:00,3.9,-0.1,30.33,NNW,333,0.0,2.0,83,0.00,,---,0.00,VWS V14.01,2013-02-15 10:40:00,
2013-02-15 04:45:00,3.9,-0.1,30.33,NNW,333,0.0,2.0,83,0.00,,---,0.00,VWS V14.01,2013-02-15 10:45:00,
2013-02-15 04:50:00,3.8,-0.2,30.33,NNW,333,1.0,2.0,83,0.00,,---,0.00,VWS V14.01,2013-02-15 10:50:00,
2013-02-15 04:55:00,3.8,-0.2,30.33,NNW,333,0.0,2.0,83,0.00,,---,0.00,VWS V14.01,2013-02-15 10:55:00,
2013-02-15 05:00:00,3.6,-0.4,30.33,NNW,333,0.0,2.0,83,0.00,,---,0.00,VWS V14.01,2013-02-15 11:00:00,
2013-02-15 05:05:00,3.6,-0.4,30.34,NNW,333,0.0,1.0,83,0.00,,---,0.00,VWS V14.01,2013-02-15 11:05:00,
2013-02-15 05:10:00,3.5,-0.5,30.34,NNW,333,0.0,1.0,83,0.00,,---,0.00,VWS V14.01,2013-02-15 11:10:00,
2013-02-15 05:15:00,3.3,-0.7,30.34,NNW,333,0.0,1.0,83,0.00,,---,0.00,VWS V14.01,2013-02-15 11:15:00,
2013-02-15 05:20:00,3.2,-0.8,30.34,NNW,333,0.0,1.0,83,0.00,,---,0.00,VWS V14.01,2013-02-15 11:20:00,
2013-02-15 05:25:00,3.1,-0.9,30.35,NNW,333,1.0,1.0,83,0.00,,---,0.00,VWS V14.01,2013-02-15 11:25:00,
2013-02-15 05:30:00,2.9,-1.1,30.35,NNW,333,0.0,1.0,83,0.00,,---,0.00,VWS V14.01,2013-02-15 11:30:00,
2013-02-15 05:35:00,2.8,-0.9,30.35,NNW,333,0.0,1.0,84,0.00,,---,0.00,VWS V14.01,2013-02-15 11:35:00,
2013-02-15 05:40:00,2.8,-0.9,30.35,NNW,333,0.0,1.0,84,0.00,,---,0.00,VWS V14.01,2013-02-15 11:40:00,
2013-02-15 05:45:00,2.8,-0.9,30.35,NNW,333,0.0,1.0,84,0.00,,---,0.00,VWS V14.01,2013-02-15 11:45:00,
2013-02-15 05:50:00,2.8,-0.9,30.35,NNW,333,0.0,2.0,84,0.00,,---,0.00,VWS V14.01,2013-02-15 11:50:00,
2013-02-15 05:55:00,2.8,-0.9,30.35,NNW,333,1.0,2.0,84,0.00,,---,0.00,VWS V14.01,2013-02-15 11:55:00,
2013-02-15 06:00:00,2.8,-0.9,30.35,NNW,333,0.0,2.0,84,0.00,,---,0.00,VWS V14.01,2013-02-15 12:00:00,
2013-02-15 06:05:00,2.8,-0.9,30.35,NNW,333,0.0,0.0,84,0.00,,---,0.00,VWS V14.01,2013-02-15 12:05:00,
2013-02-15 06:10:00,2.8,-0.9,30.36,NNW,333,0.0,1.0,84,0.00,,---,0.00,VWS V14.01,2013-02-15 12:10:00,
2013-02-15 06:15:00,2.7,-1.0,30.36,NNW,333,1.0,1.0,84,0.00,,---,0.00,VWS V14.01,2013-02-15 12:15:00,
2013-02-15 06:20:00,2.6,-1.1,30.36,NNW,333,2.0,2.0,84,0.00,,---,0.00,VWS V14.01,2013-02-15 12:20:00,
2013-02-15 06:25:00,2.5,-1.2,30.36,NNW,333,0.0,2.0,84,0.00,,---,0.00,VWS V14.01,2013-02-15 12:25:00,
2013-02-15 06:30:00,2.5,-1.2,30.36,NNW,333,1.0,2.0,84,0.00,,---,0.00,VWS V14.01,2013-02-15 12:30:00,
2013-02-15 06:34:00,2.6,-1.1,30.36,NNW,333,0.0,1.0,84,0.00,,---,0.00,VWS V14.01,2013-02-15 12:34:00,
2013-02-15 06:39:00,2.6,-1.1,30.36,NNW,333,0.0,1.0,84,0.00,,---,0.00,VWS V14.01,2013-02-15 12:39:00,
2013-02-15 06:44:00,2.4,-1.6,30.37,NNW,333,0.0,1.0,83,0.00,,---,0.00,VWS V14.01,2013-02-15 12:44:00,
2013-02-15 06:49:00,2.2,-1.8,30.37,NNW,333,0.0,1.0,83,0.00,,---,0.00,VWS V14.01,2013-02-15 12:49:00,
2013-02-15 06:54:00,1.8,-2.2,30.37,NNW,333,0.0,1.0,83,0.00,,---,0.00,VWS V14.01,2013-02-15 12:54:00,
2013-02-15 06:59:00,1.6,-2.4,30.37,NNW,333,0.0,1.0,83,0.00,,---,0.00,VWS V14.01,2013-02-15 12:59:00,
2013-02-15 07:00:00,1.5,-2.5,30.37,NNW,333,0.0,1.0,83,0.00,,---,0.00,VWS V14.01,2013-02-15 13:00:00,
2013-02-15 07:04:00,1.4,-2.5,30.37,NNW,333,0.0,1.0,83,0.00,,---,0.00,VWS V14.01,2013-02-15 13:04:00,
2013-02-15 07:09:00,1.4,-2.5,30.38,NNW,333,0.0,1.0,83,0.00,,---,0.00,VWS V14.01,2013-02-15 13:09:00,
2013-02-15 07:14:00,1.5,-2.2,30.38,NNW,333,0.0,1.0,84,0.00,,---,0.00,VWS V14.01,2013-02-15 13:14:00,
2013-02-15 07:19:00,1.6,-2.1,30.38,NNW,333,0.0,1.0,84,0.00,,---,0.00,VWS V14.01,2013-02-15 13:19:00,
2013-02-15 07:24:00,1.7,-2.0,30.38,NNW,333,0.0,1.0,84,0.00,,---,0.00,VWS V14.01,2013-02-15 13:24:00,
2013-02-15 07:29:00,1.7,-2.0,30.38,NNW,333,1.0,2.0,84,0.00,,---,0.00,VWS V14.01,2013-02-15 13:29:00,
2013-02-15 07:30:00,1.8,-1.9,30.38,NNW,333,0.0,2.0,84,0.00,,---,0.00,VWS V14.01,2013-02-15 13:30:00,
2013-02-15 07:34:00,1.8,-1.9,30.38,NNW,333,0.0,1.0,84,0.00,,---,0.00,VWS V14.01,2013-02-15 13:34:00,
2013-02-15 07:39:00,1.8,-1.9,30.38,NNW,333,0.0,1.0,84,0.00,,---,0.00,VWS V14.01,2013-02-15 13:39:00,
2013-02-15 07:44:00,1.8,-1.9,30.38,NNW,333,0.0,1.0,84,0.00,,---,0.00,VWS V14.01,2013-02-15 13:44:00,
2013-02-15 07:49:00,1.8,-1.9,30.39,NNW,333,0.0,1.0,84,0.00,,---,0.00,VWS V14.01,2013-02-15 13:49:00,
2013-02-15 07:54:00,1.7,-2.0,30.39,NNW,333,1.0,1.0,84,0.00,,---,0.00,VWS V14.01,2013-02-15 13:54:00,
2013-02-15 07:59:00,1.7,-2.0,30.39,NNW,333,0.0,1.0,84,0.00,,---,0.00,VWS V14.01,2013-02-15 13:59:00,
2013-02-15 08:00:00,1.6,-2.4,30.39,NNW,333,0.0,1.0,83,0.00,,---,0.00,VWS V14.01,2013-02-15 14:00:00,
2013-02-15 08:04:00,1.6,-2.4,30.39,NNW,333,0.0,1.0,83,0.00,,---,0.00,VWS V14.01,2013-02-15 14:04:00,
2013-02-15 08:09:00,1.5,-2.5,30.39,NNW,333,0.0,1.0,83,0.00,,---,0.00,VWS V14.01,2013-02-15 14:09:00,
2013-02-15 08:14:00,1.5,-2.2,30.39,NNW,333,0.0,2.0,84,0.00,,---,0.00,VWS V14.01,2013-02-15 14:14:00,
2013-02-15 08:19:00,1.5,-2.2,30.39,NNW,333,0.0,2.0,84,0.00,,---,0.00,VWS V14.01,2013-02-15 14:19:00,
2013-02-15 08:24:00,1.5,-2.5,30.40,NNW,333,0.0,2.0,83,0.00,,---,0.00,VWS V14.01,2013-02-15 14:24:00,
2013-02-15 08:29:00,1.6,-2.1,30.40,NNW,333,0.0,2.0,84,0.00,,---,0.00,VWS V14.01,2013-02-15 14:29:00,
2013-02-15 08:30:00,1.8,-1.9,30.40,NNW,333,1.0,2.0,84,0.00,,---,0.00,VWS V14.01,2013-02-15 14:30:00,
2013-02-15 08:34:00,1.8,-1.9,30.40,NNW,333,1.0,3.0,84,0.00,,---,0.00,VWS V14.01,2013-02-15 14:34:00,
2013-02-15 08:39:00,2.0,-1.7,30.40,NNW,333,0.0,3.0,84,0.00,,---,0.00,VWS V14.01,2013-02-15 14:39:00,
2013-02-15 08:44:00,2.3,-1.7,30.41,NNW,333,2.0,3.0,83,0.00,,---,0.00,VWS V14.01,2013-02-15 14:44:00,
2013-02-15 08:49:00,2.7,-1.3,30.40,NNW,333,1.0,4.0,83,0.00,,---,0.00,VWS V14.01,2013-02-15 14:49:00,
2013-02-15 08:54:00,3.1,-0.9,30.40,NNW,338,1.0,10.0,83,0.00,,---,0.00,VWS V14.01,2013-02-15 14:54:00,
2013-02-15 08:59:00,3.4,-0.9,30.40,NNW,334,0.0,10.0,82,0.00,,---,0.00,VWS V14.01,2013-02-15 14:59:00,
2013-02-15 09:00:00,3.6,-0.6,30.41,NNW,334,0.0,10.0,82,0.00,,---,0.00,VWS V14.01,2013-02-15 15:00:00,
2013-02-15 09:04:00,3.7,-0.6,30.41,NNW,334,1.0,2.0,82,0.00,,---,0.00,VWS V14.01,2013-02-15 15:04:00,
2013-02-15 09:09:00,3.8,-0.7,30.41,NW,325,4.0,6.0,81,0.00,,---,0.00,VWS V14.01,2013-02-15 15:09:00,
2013-02-15 09:14:00,4.0,-0.5,30.41,NW,325,4.0,6.0,81,0.00,,---,0.00,VWS V14.01,2013-02-15 15:14:00,
2013-02-15 09:19:00,4.2,-0.6,30.41,NW,325,4.0,6.0,80,0.00,,---,0.00,VWS V14.01,2013-02-15 15:19:00,
2013-02-15 09:24:00,4.5,-0.3,30.41,NW,317,2.0,6.0,80,0.00,,---,0.00,VWS V14.01,2013-02-15 15:24:00,
2013-02-15 09:29:00,4.9,0.1,30.41,NW,326,1.0,6.0,80,0.00,,---,0.00,VWS V14.01,2013-02-15 15:29:00,
2013-02-15 09:30:00,5.0,-0.1,30.41,NNW,329,3.0,6.0,79,0.00,,---,0.00,VWS V14.01,2013-02-15 15:30:00,
2013-02-15 09:34:00,5.1,0.0,30.41,NW,325,0.0,6.0,79,0.00,,---,0.00,VWS V14.01,2013-02-15 15:34:00,
2013-02-15 09:39:00,5.3,-0.1,30.41,NW,325,0.0,6.0,78,0.00,,---,0.00,VWS V14.01,2013-02-15 15:39:00,
2013-02-15 09:44:00,5.5,0.1,30.41,NNW,336,0.0,6.0,78,0.00,,---,0.00,VWS V14.01,2013-02-15 15:44:00,
2013-02-15 09:49:00,5.7,0.1,30.41,NNW,336,0.0,6.0,77,0.00,,---,0.00,VWS V14.01,2013-02-15 15:49:00,
2013-02-15 09:54:00,5.9,0.3,30.41,NW,315,5.0,8.0,77,0.00,,---,0.00,VWS V14.01,2013-02-15 15:54:00,
2013-02-15 09:59:00,6.0,0.1,30.41,NNW,327,0.0,8.0,76,0.00,,---,0.00,VWS V14.01,2013-02-15 15:59:00,
2013-02-15 10:00:00,6.2,0.3,30.41,NNW,329,0.0,8.0,76,0.00,,---,0.00,VWS V14.01,2013-02-15 16:00:00,
2013-02-15 10:04:00,6.3,0.4,30.41,NNW,329,0.0,2.0,76,0.00,,---,0.00,VWS V14.01,2013-02-15 16:04:00,
2013-02-15 10:09:00,6.5,0.3,30.41,NNW,329,5.0,5.0,75,0.00,,---,0.00,VWS V14.01,2013-02-15 16:09:00,
2013-02-15 10:14:00,6.8,0.6,30.41,NNW,342,2.0,6.0,75,0.00,,---,0.00,VWS V14.01,2013-02-15 16:14:00,
2013-02-15 10:19:00,7.1,0.6,30.41,NNW,342,0.0,6.0,74,0.00,,---,0.00,VWS V14.01,2013-02-15 16:19:00,
2013-02-15 10:24:00,7.5,0.7,30.41,NNW,341,0.0,6.0,73,0.00,,---,0.00,VWS V14.01,2013-02-15 16:24:00,
2013-02-15 10:29:00,8.0,1.2,30.41,NNW,341,0.0,6.0,73,0.00,,---,0.00,VWS V14.01,2013-02-15 16:29:00,
2013-02-15 10:30:00,8.1,1.0,30.41,NNW,341,0.0,6.0,72,0.00,,---,0.00,VWS V14.01,2013-02-15 16:30:00,
2013-02-15 10:34:00,8.2,1.0,30.41,NNW,341,0.0,0.0,72,0.00,,---,0.00,VWS V14.01,2013-02-15 16:34:00,
2013-02-15 10:39:00,8.5,1.0,30.41,NNW,341,0.0,2.0,71,0.00,,---,0.00,VWS V14.01,2013-02-15 16:39:00,
2013-02-15 10:44:00,8.7,0.9,30.41,NNW,341,0.0,2.0,70,0.00,,---,0.00,VWS V14.01,2013-02-15 16:44:00,
2013-02-15 10:49:00,9.0,1.2,30.41,NNW,341,0.0,2.0,70,0.00,,---,0.00,VWS V14.01,2013-02-15 16:49:00,
2013-02-15 10:54:00,9.5,1.7,30.41,NNW,341,0.0,2.0,70,0.00,,---,0.00,VWS V14.01,2013-02-15 16:54:00,
2013-02-15 10:59:00,9.9,1.8,30.41,NNW,341,0.0,2.0,69,0.00,,---,0.00,VWS V14.01,2013-02-15 16:59:00,
2013-02-15 11:00:00,10.1,2.0,30.41,NNW,341,0.0,2.0,69,0.00,,---,0.00,VWS V14.01,2013-02-15 17:00:00,
2013-02-15 11:04:00,10.2,2.1,30.41,NNW,341,0.0,0.0,69,0.00,,---,0.00,VWS V14.01,2013-02-15 17:04:00,
2013-02-15 11:09:00,10.5,2.0,30.41,NNW,341,0.0,2.0,68,0.00,,---,0.00,VWS V14.01,2013-02-15 17:09:00,
2013-02-15 11:14:00,10.7,1.9,30.41,NNW,341,0.0,2.0,67,0.00,,---,0.00,VWS V14.01,2013-02-15 17:14:00,
2013-02-15 11:19:00,10.9,1.8,30.41,NNW,341,0.0,2.0,66,0.00,,---,0.00,VWS V14.01,2013-02-15 17:19:00,
2013-02-15 11:24:00,11.0,1.5,30.41,NNW,341,1.0,4.0,65,0.00,,---,0.00,VWS V14.01,2013-02-15 17:24:00,
2013-02-15 11:29:00,11.3,1.8,30.41,NNW,341,0.0,4.0,65,0.00,,---,0.00,VWS V14.01,2013-02-15 17:29:00,
2013-02-15 11:30:00,11.5,2.0,30.41,NNW,341,0.0,4.0,65,0.00,,---,0.00,VWS V14.01,2013-02-15 17:30:00,
2013-02-15 11:34:00,11.6,2.1,30.41,NNW,341,1.0,1.0,65,0.00,,---,0.00,VWS V14.01,2013-02-15 17:34:00,
2013-02-15 11:39:00,12.1,2.6,30.41,NNW,341,0.0,3.0,65,0.00,,---,0.00,VWS V14.01,2013-02-15 17:39:00,
2013-02-15 11:44:00,12.3,2.1,30.40,NNW,341,0.0,4.0,63,0.00,,---,0.00,VWS V14.01,2013-02-15 17:44:00,
2013-02-15 11:49:00,12.5,2.7,30.40,NNW,341,1.0,4.0,64,0.00,,---,0.00,VWS V14.01,2013-02-15 17:49:00,
2013-02-15 11:54:00,12.7,2.5,30.40,NNW,341,0.0,4.0,63,0.00,,---,0.00,VWS V14.01,2013-02-15 17:54:00,
2013-02-15 11:59:00,13.0,2.8,30.40,NNW,341,0.0,4.0,63,0.00,,---,0.00,VWS V14.01,2013-02-15 17:59:00,
2013-02-15 12:00:00,13.3,2.7,30.40,NNW,341,0.0,4.0,62,0.00,,---,0.00,VWS V14.01,2013-02-15 18:00:00,
2013-02-15 12:04:00,13.4,2.8,30.40,NNW,341,0.0,0.0,62,0.00,,---,0.00,VWS V14.01,2013-02-15 18:04:00,
2013-02-15 12:09:00,13.6,3.0,30.40,NNW,340,0.0,5.0,62,0.00,,---,0.00,VWS V14.01,2013-02-15 18:09:00,
2013-02-15 12:14:00,13.9,3.0,30.40,NNW,334,2.0,5.0,61,0.00,,---,0.00,VWS V14.01,2013-02-15 18:14:00,
2013-02-15 12:19:00,14.3,3.3,30.40,NNW,335,4.0,5.0,61,0.00,,---,0.00,VWS V14.01,2013-02-15 18:19:00,
2013-02-15 12:24:00,14.6,3.2,30.39,NNW,337,0.0,5.0,60,0.00,,---,0.00,VWS V14.01,2013-02-15 18:24:00,
2013-02-15 12:29:00,14.8,3.4,30.39,North,351,0.0,5.0,60,0.00,,---,0.00,VWS V14.01,2013-02-15 18:29:00,
2013-02-15 12:30:00,15.1,3.7,30.39,NNW,333,0.0,5.0,60,0.00,,---,0.00,VWS V14.01,2013-02-15 18:30:00,
2013-02-15 12:34:00,15.2,3.8,30.39,NNW,333,1.0,3.0,60,0.00,,---,0.00,VWS V14.01,2013-02-15 18:34:00,
2013-02-15 12:39:00,15.5,3.4,30.39,NNW,337,0.0,6.0,58,0.00,,---,0.00,VWS V14.01,2013-02-15 18:39:00,
2013-02-15 12:44:00,15.6,3.5,30.39,NW,317,1.0,6.0,58,0.00,,---,0.00,VWS V14.01,2013-02-15 18:44:00,
2013-02-15 12:49:00,15.8,3.7,30.39,NNW,345,0.0,6.0,58,0.00,,---,0.00,VWS V14.01,2013-02-15 18:49:00,
2013-02-15 12:54:00,16.0,3.5,30.39,NNW,336,6.0,7.0,57,0.00,,---,0.00,VWS V14.01,2013-02-15 18:54:00,
2013-02-15 12:59:00,16.1,3.9,30.39,NNW,336,3.0,7.0,58,0.00,,---,0.00,VWS V14.01,2013-02-15 18:59:00,
2013-02-15 13:00:00,16.3,4.1,30.39,NNW,330,2.0,7.0,58,0.00,,---,0.00,VWS V14.01,2013-02-15 19:00:00,
2013-02-15 13:04:00,16.3,3.8,30.39,NNW,330,2.0,4.0,57,0.00,,---,0.00,VWS V14.01,2013-02-15 19:04:00,
2013-02-15 13:09:00,16.4,3.8,30.39,NNW,348,1.0,6.0,57,0.00,,---,0.00,VWS V14.01,2013-02-15 19:09:00,
2013-02-15 13:14:00,16.7,4.5,30.39,WNW,294,2.0,8.0,58,0.00,,---,0.00,VWS V14.01,2013-02-15 19:14:00,
2013-02-15 13:19:00,17.0,4.4,30.38,NW,320,3.0,8.0,57,0.00,,---,0.00,VWS V14.01,2013-02-15 19:19:00,
2013-02-15 13:24:00,17.2,4.2,30.38,NNW,332,5.0,8.0,56,0.00,,---,0.00,VWS V14.01,2013-02-15 19:24:00,
2013-02-15 13:29:00,17.3,3.9,30.38,NW,322,5.0,8.0,55,0.00,,---,0.00,VWS V14.01,2013-02-15 19:29:00,
2013-02-15 13:30:00,17.3,3.9,30.38,NW,309,4.0,9.0,55,0.00,,---,0.00,VWS V14.01,2013-02-15 19:30:00,
2013-02-15 13:34:00,17.3,3.9,30.38,NNW,334,6.0,7.0,55,0.00,,---,0.00,VWS V14.01,2013-02-15 19:34:00,
2013-02-15 13:39:00,17.5,4.1,30.38,NW,323,3.0,7.0,55,0.00,,---,0.00,VWS V14.01,2013-02-15 19:39:00,
2013-02-15 13:44:00,17.8,4.4,30.37,NW,315,2.0,7.0,55,0.00,,---,0.00,VWS V14.01,2013-02-15 19:44:00,
2013-02-15 13:49:00,18.0,4.2,30.37,NW,307,4.0,8.0,54,0.00,,---,0.00,VWS V14.01,2013-02-15 19:49:00,
2013-02-15 13:54:00,18.0,4.2,30.37,NNW,327,3.0,8.0,54,0.00,,---,0.00,VWS V14.01,2013-02-15 19:54:00,
2013-02-15 13:59:00,17.7,3.9,30.37,NNW,330,2.0,8.0,54,0.00,,---,0.00,VWS V14.01,2013-02-15 19:59:00,
2013-02-15 14:00:00,17.5,3.7,30.37,NNW,330,1.0,8.0,54,0.00,,---,0.00,VWS V14.01,2013-02-15 20:00:00,
2013-02-15 14:04:00,17.5,4.1,30.37,NNW,330,1.0,2.0,55,0.00,,---,0.00,VWS V14.01,2013-02-15 20:04:00,
2013-02-15 14:09:00,17.6,4.6,30.37,NNW,330,0.0,5.0,56,0.00,,---,0.00,VWS V14.01,2013-02-15 20:09:00,
2013-02-15 14:14:00,17.8,4.8,30.37,NW,323,1.0,5.0,56,0.00,,---,0.00,VWS V14.01,2013-02-15 20:14:00,
2013-02-15 14:19:00,18.0,4.6,30.36,NNW,333,2.0,5.0,55,0.00,,---,0.00,VWS V14.01,2013-02-15 20:19:00,
2013-02-15 14:24:00,17.9,4.1,30.37,NW,323,1.0,7.0,54,0.00,,---,0.00,VWS V14.01,2013-02-15 20:24:00,
2013-02-15 14:29:00,17.9,4.1,30.36,NW,322,7.0,7.0,54,0.00,,---,0.00,VWS V14.01,2013-02-15 20:29:00,
2013-02-15 14:30:00,18.1,4.3,30.37,NNW,333,1.0,7.0,54,0.00,,---,0.00,VWS V14.01,2013-02-15 20:30:00,
2013-02-15 14:34:00,18.1,4.7,30.36,NW,323,3.0,4.0,55,0.00,,---,0.00,VWS V14.01,2013-02-15 20:34:00,
2013-02-15 14:39:00,18.3,4.8,30.36,NW,323,4.0,7.0,55,0.00,,---,0.00,VWS V14.01,2013-02-15 20:39:00,
2013-02-15 14:44:00,18.4,5.3,30.36,NW,323,2.0,7.0,56,0.00,,---,0.00,VWS V14.01,2013-02-15 20:44:00,
2013-02-15 14:49:00,18.4,4.9,30.36,NW,315,5.0,11.0,55,0.00,,---,0.00,VWS V14.01,2013-02-15 20:49:00,
2013-02-15 14:54:00,18.4,5.3,30.36,NW,323,1.0,11.0,56,0.00,,---,0.00,VWS V14.01,2013-02-15 20:54:00,
2013-02-15 14:59:00,18.4,5.3,30.36,NW,318,4.0,11.0,56,0.00,,---,0.00,VWS V14.01,2013-02-15 20:59:00,
2013-02-15 15:00:00,18.5,5.4,30.36,NW,321,3.0,11.0,56,0.00,,---,0.00,VWS V14.01,2013-02-15 21:00:00,
2013-02-15 15:04:00,18.5,5.0,30.36,NW,319,4.0,5.0,55,0.00,,---,0.00,VWS V14.01,2013-02-15 21:04:00,
2013-02-15 15:09:00,18.5,5.4,30.36,NW,321,5.0,9.0,56,0.00,,---,0.00,VWS V14.01,2013-02-15 21:09:00,
2013-02-15 15:14:00,18.5,4.6,30.36,NW,314,8.0,10.0,54,0.00,,---,0.00,VWS V14.01,2013-02-15 21:14:00,
2013-02-15 15:19:00,18.3,4.8,30.36,NW,323,7.0,12.0,55,0.00,,---,0.00,VWS V14.01,2013-02-15 21:19:00,
2013-02-15 15:24:00,18.2,4.4,30.36,NW,314,4.0,12.0,54,0.00,,---,0.00,VWS V14.01,2013-02-15 21:24:00,
2013-02-15 15:29:00,18.0,4.6,30.36,NW,313,2.0,12.0,55,0.00,,---,0.00,VWS V14.01,2013-02-15 21:29:00,
2013-02-15 15:30:00,18.1,4.7,30.36,NW,313,6.0,13.0,55,0.00,,---,0.00,VWS V14.01,2013-02-15 21:30:00,
2013-02-15 15:34:00,18.1,4.3,30.36,NW,313,7.0,9.0,54,0.00,,---,0.00,VWS V14.01,2013-02-15 21:34:00,
2013-02-15 15:39:00,18.3,4.4,30.36,NW,319,6.0,12.0,54,0.00,,---,0.00,VWS V14.01,2013-02-15 21:39:00,
2013-02-15 15:44:00,18.4,4.9,30.36,NW,316,7.0,12.0,55,0.00,,---,0.00,VWS V14.01,2013-02-15 21:44:00,
2013-02-15 15:49:00,18.4,4.6,30.36,NW,321,3.0,13.0,54,0.00,,---,0.00,VWS V14.01,2013-02-15 21:49:00,
2013-02-15 15:54:00,18.5,4.6,30.36,NW,323,5.0,13.0,54,0.00,,---,0.00,VWS V14.01,2013-02-15 21:54:00,
2013-02-15 15:59:00,18.6,4.7,30.36,NW,309,1.0,13.0,54,0.00,,---,0.00,VWS V14.01,2013-02-15 21:59:00,
2013-02-15 16:00:00,18.7,4.8,30.35,NNW,330,7.0,13.0,54,0.00,,---,0.00,VWS V14.01,2013-02-15 22:00:00,
2013-02-15 16:04:00,18.7,4.8,30.36,NW,321,1.0,7.0,54,0.00,,---,0.00,VWS V14.01,2013-02-15 22:04:00,
2013-02-15 16:09:00,18.8,4.9,30.36,NW,313,3.0,7.0,54,0.00,,---,0.00,VWS V14.01,2013-02-15 22:09:00,
2013-02-15 16:14:00,18.7,4.0,30.36,NW,313,4.0,7.0,52,0.00,,---,0.00,VWS V14.01,2013-02-15 22:14:00,
2013-02-15 16:19:00,18.4,4.6,30.36,NW,319,6.0,13.0,54,0.00,,---,0.00,VWS V14.01,2013-02-15 22:19:00,
2013-02-15 16:24:00,18.1,4.3,30.36,NW,314,5.0,13.0,54,0.00,,---,0.00,VWS V14.01,2013-02-15 22:24:00,
2013-02-15 16:29:00,18.0,4.6,30.36,NW,318,5.0,13.0,55,0.00,,---,0.00,VWS V14.01,2013-02-15 22:29:00,
2013-02-15 16:30:00,17.9,4.5,30.36,NW,317,5.0,13.0,55,0.00,,---,0.00,VWS V14.01,2013-02-15 22:30:00,
2013-02-15 16:34:00,17.9,4.5,30.36,NW,321,5.0,6.0,55,0.00,,---,0.00,VWS V14.01,2013-02-15 22:34:00,
2013-02-15 16:39:00,17.8,4.0,30.36,NW,321,4.0,9.0,54,0.00,,---,0.00,VWS V14.01,2013-02-15 22:39:00,
2013-02-15 16:44:00,17.8,4.0,30.36,NW,321,2.0,9.0,54,0.00,,---,0.00,VWS V14.01,2013-02-15 22:44:00,
2013-02-15 16:48:00,17.7,3.9,30.36,NW,320,4.0,9.0,54,0.00,,---,0.00,VWS V14.01,2013-02-15 22:48:00,
2013-02-15 16:53:00,17.6,3.8,30.36,NW,319,2.0,9.0,54,0.00,,---,0.00,VWS V14.01,2013-02-15 22:53:00,
2013-02-15 16:58:00,17.4,3.6,30.36,NW,319,2.0,9.0,54,0.00,,---,0.00,VWS V14.01,2013-02-15 22:58:00,
2013-02-15 17:00:00,17.3,3.5,30.36,NW,319,1.0,9.0,54,0.00,,---,0.00,VWS V14.01,2013-02-15 23:00:00,
2013-02-15 17:04:00,17.2,3.8,30.36,NW,319,1.0,5.0,55,0.00,,---,0.00,VWS V14.01,2013-02-15 23:04:00,
2013-02-15 17:09:00,17.0,3.6,30.36,NW,317,2.0,5.0,55,0.00,,---,0.00,VWS V14.01,2013-02-15 23:09:00,
2013-02-15 17:14:00,16.7,3.7,30.36,NW,317,2.0,5.0,56,0.00,,---,0.00,VWS V14.01,2013-02-15 23:14:00,
2013-02-15 17:19:00,16.5,3.5,30.36,NW,313,3.0,5.0,56,0.00,,---,0.00,VWS V14.01,2013-02-15 23:19:00,
2013-02-15 17:24:00,16.5,3.5,30.36,NW,313,0.0,6.0,56,0.00,,---,0.00,VWS V14.01,2013-02-15 23:24:00,
2013-02-15 17:29:00,16.3,3.4,30.37,NW,318,1.0,6.0,56,0.00,,---,0.00,VWS V14.01,2013-02-15 23:29:00,
2013-02-15 17:30:00,16.1,3.2,30.37,NW,321,1.0,6.0,56,0.00,,---,0.00,VWS V14.01,2013-02-15 23:30:00,
2013-02-15 17:34:00,16.1,3.2,30.37,NW,321,4.0,4.0,56,0.00,,---,0.00,VWS V14.01,2013-02-15 23:34:00,
2013-02-15 17:39:00,15.7,3.2,30.37,NW,325,2.0,6.0,57,0.00,,---,0.00,VWS V14.01,2013-02-15 23:39:00,
2013-02-15 17:44:00,15.0,2.9,30.37,NW,325,1.0,6.0,58,0.00,,---,0.00,VWS V14.01,2013-02-15 23:44:00,
2013-02-15 17:49:00,14.6,2.9,30.37,NW,325,3.0,6.0,59,0.00,,---,0.00,VWS V14.01,2013-02-15 23:49:00,
2013-02-15 17:54:00,14.4,3.1,30.37,NNW,327,0.0,6.0,60,0.00,,---,0.00,VWS V14.01,2013-02-15 23:54:00,
2013-02-15 17:59:00,14.2,3.2,30.37,NW,323,1.0,6.0,61,0.00,,---,0.00,VWS V14.01,2013-02-15 23:59:00,
2013-02-15 18:00:00,14.1,3.1,30.37,NW,326,1.0,9.0,61,0.00,,---,0.00,VWS V14.01,2013-02-16 00:00:00,
2013-02-15 18:04:00,14.1,3.1,30.37,NW,326,2.0,5.0,61,0.00,,---,0.00,VWS V14.01,2013-02-16 00:04:00,
2013-02-15 18:09:00,14.0,3.4,30.38,NW,325,5.0,5.0,62,0.00,,---,0.00,VWS V14.01,2013-02-16 00:09:00,
2013-02-15 18:14:00,13.8,3.2,30.38,NW,325,4.0,5.0,62,0.00,,---,0.00,VWS V14.01,2013-02-16 00:14:00,
2013-02-15 18:19:00,13.5,3.3,30.38,NW,326,5.0,5.0,63,0.00,,---,0.00,VWS V14.01,2013-02-16 00:19:00,
2013-02-15 18:24:00,13.3,3.4,30.38,NW,321,2.0,6.0,64,0.00,,---,0.00,VWS V14.01,2013-02-16 00:24:00,
2013-02-15 18:29:00,13.1,3.6,30.38,NW,323,3.0,6.0,65,0.00,,---,0.00,VWS V14.01,2013-02-16 00:29:00,
2013-02-15 18:30:00,13.0,3.8,30.38,NW,323,2.0,9.0,66,0.00,,---,0.00,VWS V14.01,2013-02-16 00:30:00,
2013-02-15 18:34:00,13.0,3.8,30.38,NW,323,2.0,4.0,66,0.00,,---,0.00,VWS V14.01,2013-02-16 00:34:00,
2013-02-15 18:39:00,12.9,3.7,30.38,NW,322,2.0,8.0,66,0.00,,---,0.00,VWS V14.01,2013-02-16 00:39:00,
2013-02-15 18:44:00,12.8,3.6,30.38,NW,315,0.0,8.0,66,0.00,,---,0.00,VWS V14.01,2013-02-16 00:44:00,
2013-02-15 18:49:00,12.6,3.4,30.38,NW,315,0.0,8.0,66,0.00,,---,0.00,VWS V14.01,2013-02-16 00:49:00,
2013-02-15 18:54:00,12.6,3.4,30.38,NW,325,0.0,8.0,66,0.00,,---,0.00,VWS V14.01,2013-02-16 00:54:00,
2013-02-15 18:59:00,12.4,3.5,30.38,NW,325,2.0,8.0,67,0.00,,---,0.00,VWS V14.01,2013-02-16 00:59:00,
2013-02-15 19:00:00,12.2,3.3,30.38,NW,325,0.0,8.0,67,0.00,,---,0.00,VWS V14.01,2013-02-16 01:00:00,
2013-02-15 19:04:00,12.2,3.3,30.38,NW,325,4.0,4.0,67,0.00,,---,0.00,VWS V14.01,2013-02-16 01:04:00,
2013-02-15 19:09:00,11.9,3.1,30.38,NNW,332,2.0,4.0,67,0.00,,---,0.00,VWS V14.01,2013-02-16 01:09:00,
2013-02-15 19:14:00,11.8,3.3,30.38,NNW,329,0.0,4.0,68,0.00,,---,0.00,VWS V14.01,2013-02-16 01:14:00,
2013-02-15 19:19:00,11.7,3.2,30.38,NW,315,2.0,5.0,68,0.00,,---,0.00,VWS V14.01,2013-02-16 01:19:00,
2013-02-15 19:24:00,11.6,3.1,30.37,NW,321,0.0,5.0,68,0.00,,---,0.00,VWS V14.01,2013-02-16 01:24:00,
2013-02-15 19:29:00,11.3,2.8,30.38,NW,321,0.0,5.0,68,0.00,,---,0.00,VWS V14.01,2013-02-16 01:29:00,
2013-02-15 19:30:00,11.1,2.6,30.38,NW,321,0.0,5.0,68,0.00,,---,0.00,VWS V14.01,2013-02-16 01:30:00,
2013-02-15 19:34:00,11.0,2.5,30.38,NW,321,0.0,0.0,68,0.00,,---,0.00,VWS V14.01,2013-02-16 01:34:00,
2013-02-15 19:39:00,10.8,2.6,30.37,NW,321,0.0,1.0,69,0.00,,---,0.00,VWS V14.01,2013-02-16 01:39:00,
2013-02-15 19:44:00,10.5,2.4,30.37,NW,321,0.0,1.0,69,0.00,,---,0.00,VWS V14.01,2013-02-16 01:44:00,
2013-02-15 19:49:00,10.3,2.5,30.37,NW,321,0.0,1.0,70,0.00,,---,0.00,VWS V14.01,2013-02-16 01:49:00,
2013-02-15 19:54:00,10.1,2.3,30.37,NW,321,0.0,1.0,70,0.00,,---,0.00,VWS V14.01,2013-02-16 01:54:00,
2013-02-15 19:59:00,9.9,2.1,30.37,NW,321,0.0,1.0,70,0.00,,---,0.00,VWS V14.01,2013-02-16 01:59:00,
2013-02-15 20:00:00,9.8,2.3,30.37,NW,321,0.0,1.0,71,0.00,,---,0.00,VWS V14.01,2013-02-16 02:00:00,
2013-02-15 20:04:00,9.7,2.2,30.37,NW,321,0.0,0.0,71,0.00,,---,0.00,VWS V14.01,2013-02-16 02:04:00,
2013-02-15 20:09:00,9.5,2.0,30.37,NW,321,0.0,0.0,71,0.00,,---,0.00,VWS V14.01,2013-02-16 02:09:00,
2013-02-15 20:14:00,9.5,2.0,30.37,NW,321,0.0,1.0,71,0.00,,---,0.00,VWS V14.01,2013-02-16 02:14:00,
2013-02-15 20:19:00,9.4,2.2,30.38,NW,321,0.0,1.0,72,0.00,,---,0.00,VWS V14.01,2013-02-16 02:19:00,
2013-02-15 20:24:00,9.2,2.0,30.38,NW,321,0.0,1.0,72,0.00,,---,0.00,VWS V14.01,2013-02-16 02:24:00,
2013-02-15 20:29:00,9.1,1.9,30.38,NW,321,0.0,1.0,72,0.00,,---,0.00,VWS V14.01,2013-02-16 02:29:00,
2013-02-15 20:30:00,9.1,2.2,30.38,NW,321,0.0,2.0,73,0.00,,---,0.00,VWS V14.01,2013-02-16 02:30:00,
2013-02-15 20:34:00,9.1,2.2,30.38,NW,321,1.0,2.0,73,0.00,,---,0.00,VWS V14.01,2013-02-16 02:34:00,
2013-02-15 20:39:00,9.4,2.8,30.38,NW,321,1.0,2.0,74,0.00,,---,0.00,VWS V14.01,2013-02-16 02:39:00,
2013-02-15 20:44:00,9.5,2.6,30.38,NW,321,1.0,2.0,73,0.00,,---,0.00,VWS V14.01,2013-02-16 02:44:00,
2013-02-15 20:49:00,9.7,2.8,30.38,NW,321,0.0,2.0,73,0.00,,---,0.00,VWS V14.01,2013-02-16 02:49:00,
2013-02-15 20:54:00,9.8,2.9,30.38,NW,321,0.0,2.0,73,0.00,,---,0.00,VWS V14.01,2013-02-16 02:54:00,
2013-02-15 20:59:00,9.9,3.0,30.37,NW,321,0.0,2.0,73,0.00,,---,0.00,VWS V14.01,2013-02-16 02:59:00,
2013-02-15 21:00:00,9.9,3.0,30.37,NW,321,0.0,2.0,73,0.00,,---,0.00,VWS V14.01,2013-02-16 03:00:00,
2013-02-15 21:04:00,9.9,3.0,30.37,NW,321,0.0,0.0,73,0.00,,---,0.00,VWS V14.01,2013-02-16 03:04:00,
2013-02-15 21:09:00,9.9,3.0,30.37,NW,321,2.0,2.0,73,0.00,,---,0.00,VWS V14.01,2013-02-16 03:09:00,
2013-02-15 21:14:00,10.0,3.4,30.37,NW,321,1.0,2.0,74,0.00,,---,0.00,VWS V14.01,2013-02-16 03:14:00,
2013-02-15 21:19:00,10.1,3.5,30.37,NW,321,0.0,2.0,74,0.00,,---,0.00,VWS V14.01,2013-02-16 03:19:00,
2013-02-15 21:24:00,10.2,3.6,30.37,NW,321,0.0,2.0,74,0.00,,---,0.00,VWS V14.01,2013-02-16 03:24:00,
2013-02-15 21:29:00,10.2,3.6,30.37,NW,321,0.0,2.0,74,0.00,,---,0.00,VWS V14.01,2013-02-16 03:29:00,
2013-02-15 21:30:00,10.3,3.7,30.37,NW,321,0.0,2.0,74,0.00,,---,0.00,VWS V14.01,2013-02-16 03:30:00,
2013-02-15 21:34:00,10.3,3.7,30.37,NW,321,0.0,0.0,74,0.00,,---,0.00,VWS V14.01,2013-02-16 03:34:00,
2013-02-15 21:39:00,10.4,3.8,30.37,NW,321,0.0,1.0,74,0.00,,---,0.00,VWS V14.01,2013-02-16 03:39:00,
2013-02-15 21:44:00,10.4,3.8,30.37,NW,321,0.0,1.0,74,0.00,,---,0.00,VWS V14.01,2013-02-16 03:44:00,
2013-02-15 21:49:00,10.4,3.8,30.37,NW,321,0.0,1.0,74,0.00,,---,0.00,VWS V14.01,2013-02-16 03:49:00,
2013-02-15 21:54:00,10.4,4.1,30.37,NW,321,0.0,1.0,75,0.00,,---,0.00,VWS V14.01,2013-02-16 03:54:00,
2013-02-15 21:59:00,10.4,4.1,30.36,NW,321,0.0,1.0,75,0.00,,---,0.00,VWS V14.01,2013-02-16 03:59:00,
2013-02-15 22:00:00,10.4,4.1,30.36,NW,321,0.0,1.0,75,0.00,,---,0.00,VWS V14.01,2013-02-16 04:00:00,
2013-02-15 22:04:00,10.4,4.1,30.36,NW,321,0.0,0.0,75,0.00,,---,0.00,VWS V14.01,2013-02-16 04:04:00,
2013-02-15 22:09:00,10.3,4.0,30.35,NW,306,0.0,1.0,75,0.00,,---,0.00,VWS V14.01,2013-02-16 04:09:00,
2013-02-15 22:14:00,10.3,4.0,30.35,NW,306,0.0,1.0,75,0.00,,---,0.00,VWS V14.01,2013-02-16 04:14:00,
2013-02-15 22:19:00,10.3,4.0,30.35,NW,306,0.0,1.0,75,0.00,,---,0.00,VWS V14.01,2013-02-16 04:19:00,
2013-02-15 22:24:00,10.2,4.2,30.35,NW,306,0.0,1.0,76,0.00,,---,0.00,VWS V14.01,2013-02-16 04:24:00,
2013-02-15 22:29:00,10.2,3.9,30.35,NW,306,1.0,1.0,75,0.00,,---,0.00,VWS V14.01,2013-02-16 04:29:00,
2013-02-15 22:30:00,10.1,4.1,30.35,WNW,302,0.0,2.0,76,0.00,,---,0.00,VWS V14.01,2013-02-16 04:30:00,
2013-02-15 22:33:00,10.1,4.1,30.35,WNW,302,1.0,1.0,76,0.00,,---,0.00,VWS V14.01,2013-02-16 04:33:00,
2013-02-15 22:39:00,10.1,4.1,30.35,WNW,302,0.0,1.0,76,0.00,,---,0.00,VWS V14.01,2013-02-16 04:39:00,
2013-02-15 22:43:00,10.1,4.1,30.35,WNW,302,0.0,1.0,76,0.00,,---,0.00,VWS V14.01,2013-02-16 04:43:00,
2013-02-15 22:48:00,10.2,4.2,30.34,WNW,302,0.0,1.0,76,0.00,,---,0.00,VWS V14.01,2013-02-16 04:48:00,
2013-02-15 22:53:00,10.2,4.2,30.35,WNW,302,0.0,1.0,76,0.00,,---,0.00,VWS V14.01,2013-02-16 04:53:00,
2013-02-15 22:58:00,10.2,4.2,30.35,WNW,302,0.0,1.0,76,0.00,,---,0.00,VWS V14.01,2013-02-16 04:58:00,
2013-02-15 23:00:00,10.2,4.2,30.35,WNW,302,0.0,1.0,76,0.00,,---,0.00,VWS V14.01,2013-02-16 05:00:00,
2013-02-15 23:05:00,10.2,4.4,30.34,WNW,302,0.0,0.0,77,0.00,,---,0.00,VWS V14.01,2013-02-16 05:05:00,
2013-02-15 23:10:00,10.2,4.4,30.34,WNW,302,0.0,0.0,77,0.00,,---,0.00,VWS V14.01,2013-02-16 05:10:00,
2013-02-15 23:15:00,10.2,4.2,30.34,WNW,302,0.0,0.0,76,0.00,,---,0.00,VWS V14.01,2013-02-16 05:15:00,
2013-02-15 23:20:00,10.2,4.4,30.34,WNW,302,0.0,0.0,77,0.00,,---,0.00,VWS V14.01,2013-02-16 05:20:00,
2013-02-15 23:23:00,10.3,4.5,30.34,WNW,302,0.0,0.0,77,0.00,,---,0.00,VWS V14.01,2013-02-16 05:23:00,
2013-02-15 23:28:00,10.3,4.5,30.34,WNW,302,0.0,0.0,77,0.00,,---,0.00,VWS V14.01,2013-02-16 05:28:00,
2013-02-15 23:30:00,10.3,4.5,30.33,WNW,302,0.0,0.0,77,0.00,,---,0.00,VWS V14.01,2013-02-16 05:30:00,
2013-02-15 23:33:00,10.3,4.5,30.33,WNW,302,0.0,0.0,77,0.00,,---,0.00,VWS V14.01,2013-02-16 05:33:00,
2013-02-15 23:38:00,10.4,4.6,30.33,WNW,302,0.0,2.0,77,0.00,,---,0.00,VWS V14.01,2013-02-16 05:38:00,
2013-02-15 23:43:00,10.4,4.6,30.33,WNW,302,0.0,2.0,77,0.00,,---,0.00,VWS V14.01,2013-02-16 05:43:00,
2013-02-15 23:48:00,10.3,4.8,30.33,WNW,302,0.0,2.0,78,0.00,,---,0.00,VWS V14.01,2013-02-16 05:48:00,
2013-02-15 23:53:00,10.3,4.8,30.33,WNW,302,0.0,2.0,78,0.00,,---,0.00,VWS V14.01,2013-02-16 05:53:00,
2013-02-15 23:58:00,10.4,4.9,30.33,WNW,302,0.0,2.0,78,0.00,,---,0.00,VWS V14.01,2013-02-16 05:58:00,